Showing default

AMAZONAS 5, 42934

Orbit data source: Space-Track

AMAZONAS 5, 42934 is a Brazilian payload satellite in GEO that was launched on Mon, 11 Sep 2017 UTC via a PROTON-M/BRIZ-M launch vehicle from the Tyuratam Missile And Space Complex (TTMTR). Payload-class satellites include a variety of spacecraft equipped with specific instruments for various scientific and technological missions. These include communications satellites like Starlink; space stations such as the ISS; scientific satellites like the Hubble; Earth observation satellites from companies like Planet Labs, Umbra, and HawkEye 360; GPS; miniature CubeSats for education and research; and military/defense satellites.

Loading next visibility...
Identifier
42934, 2017-053A
Orbit
GEO
Country
Flag of BRBR / BRAZ
Related business
Manufacturer
SS/Loral (MDA)
Mission
Operational Commercial Communications
Bus & Motor
SSL-1300, R-4D-15?
Mass
5,900 kg wet, ~3,500 kg dry
Launch date (UTC)
2017-09-11 (9 years ago)
Launch vehicle
PROTON-M/BRIZ-M
Launch site
Tyuratam Missile And Space Complex (TTMTR)
Object type
Payload
Rocket body
Debris
Shape & HBR
Box + 2 Pan, 13.0 m
Radar Cross Section
45.651 m², Large (>1 m²)

Expand to show TLE details & history
Last TLE update: 2 days ago

TLE from 2 days ago
0 AMAZONAS 5
1 42934U 17053A   26171.12497531 -.00000288  00000-0  00000-0 0  9996
2 42934   0.0322 325.1798 0001972  73.4746 213.6749  1.00272263 32073
Epoch: 2026-06-20T02:59Z
TLE epoch observation values (Epoch: 2026-06-20T02:59:57.866Z)
Latitude
-0.04813°
Longitude
-61.00594°
Altitude
35,792.888 km
Speed
3.074 km/s
True Right ascension
16h 49m 19s
True Declination
0° 02' 53"
Sunlit
Object was in daylight at epoch
Visualization orbit readout
Latitude
Unknown
Longitude
Unknown
Altitude
Unknown
Speed
Unknown
Apparent Right ascension
Unknown
Apparent Declination
Unknown
Sunlit
N/A
Visualization observer readout
Local Sidereal Time
21:38:57
Azimuth
Unknown
Elevation
Unknown
Doppler factor
Unknown
Orbital elements
Apogee altitude
35,795.846 km
Perigee altitude
35,779.216 km
Semi-major axis
42,165.668 km
Eccentricity
0.0002
Inclination
0.0322°
RAAN
325.1798°
Arg. of periapsis
73.4746°
True anomaly
213.66237°
Mean anomaly
213.6749°
Eccentric anomaly
213.66864°
Mean motion
0.25067 °/min
Orbital period
1,436.14 mins
BSTAR
0
Loading maneuver chart data...
Computing Atmospheric mass density...
Loading historical data...
Loading historical data...
Loading historical data...
Loading historical data...
Loading historical data...
Loading historical data...
Loading historical data...
Other satellites on launch #53 in the year 2017 (2017-09-11 UTC)

Documentation

Showing up to 5 results
|